Powrót do katalogu

SL-18 DEB

AktywnyLEO
NORAD 22599·DEBRIS·🇷🇺 Russia

Wystrzelony Mar 25, 1993 z Plesetsk Cosmodrome

Loading…

Następne Przeloty (najbliższe 24 godziny)

TLE

ŚwieżeSource: Space-Track

Epoka: Sep 14, 2026, 10:41 UTC

1 22599U 93014E   26257.44568922  .00001644  00000-0  35563-3 0  9996
2 22599  75.7523 165.4983 0123326  94.0611 267.4668 14.54016981752622

Śledź SL-18 DEB w czasie rzeczywistym z AllMySat

Download on the App Store